Temp
57 57 58 56 56 56 59 58 51 45 45 51 52 51 53 55 53 52 51 54 58 59 61 61 61 62 62 63 63 63 62 61 60 60 61 62 65 64
58 58 57 60 58 56 55 57 55 50 47 49 49 50 53 55 53 53 53 52 55 58 59 58 58 59 60 61 61 61 60 60 60 60 61 61 62 62
59 58 57 60 58 59 54 55 53 55 51 48 49 49 50 51 52 51 51 51 51 55 58 58 57 58 58 59 59 59 59 59 60 60 61 61 61 61
59 59 58 59 58 59 59 57 57 53 53 51 47 47 48 48 50 49 51 54 51 54 56 57 57 57 57 57 57 57 57 57 58 59 59 60 61 61
60 60 60 60 58 56 57 57 57 57 54 53 49 49 47 47 47 47 49 49 52 52 55 56 56 56 56 56 56 56 55 55 55 56 56 57 58 59
59 59 59 59 59 57 55 55 56 55 53 52 50 47 47 47 47 46 46 47 48 51 52 53 54 55 55 56 55 53 53 53 55 55 54 54 54 56
57 58 58 57 54 57 57 54 55 54 52 50 49 47 45 45 46 46 46 45 45 47 46 47 48 48 49 54 52 51 52 53 53 54 54 54 53 54
55 56 58 50 52 53 53 54 56 54 53 52 52 47 46 47 46 46 45 43 43 46 45 44 46 46 47 48 52 52 51 52 52 53 53 53 53 53
55 55 55 55 52 55 52 52 52 53 55 55 53 52 51 50 48 45 44 44 45 45 45 44 44 45 46 48 51 51 51 51 51 52 52 52 52 52
55 55 55 54 53 52 53 53 53 53 53 54 56 53 54 52 52 50 49 47 44 44 45 41 41 42 42 44 50 51 51 51 50 51 51 51 50 51
55 53 53 54 51 51 52 51 50 50 50 50 51 51 50 50 50 47 43 42 40 40 41 42 39 39 39 41 43 47 50 51 50 50 51 50 49 49
51 52 50 54 49 50 52 50 49 50 48 48 48 48 49 49 49 51 46 41 37 37 40 41 38 40 38 38 39 41 43 47 49 49 50 49 49 47
51 50 51 49 49 49 51 50 51 52 49 48 47 46 46 46 46 46 48 45 39 39 43 41 35 36 35 35 37 38 40 42 44 46 48 49 49 48
50 50 50 48 48 48 49 50 49 48 47 47 46 46 45 44 44 45 45 44 44 44 43 41 34 36 35 34 35 37 37 39 40 41 42 46 48 48
51 49 48 47 47 47 48 48 48 48 47 46 46 43 40 42 39 37 38 37 36 38 41 39 36 35 35 34 34 33 35 35 36 35 37 39 40 42
46 47 47 47 47 47 46 47 49 49 47 46 41 37 35 36 36 35 34 35 34 33 34 37 37 35 34 34 34 34 33 34 33 35 35 33 36 38
47 46 45 44 43 43 43 45 46 45 42 39 37 35 34 35 33 33 34 33 33 33 32 33 34 35 34 34 33 33 33 33 33 34 33 31 35 38
45 44 44 43 42 41 41 39 38 40 38 38 37 36 35 34 34 33 33 34 34 33 32 32 33 33 33 34 37 33 33 33 33 33 32 33 33 36
42 40 38 38 38 38 37 35 34 34 35 36 36 35 35 34 35 34 34 34 33 33 32 32 32 33 33 32 33 38 33 33 33 33 33 32 32 35
37 36 35 35 35 35 35 34 34 34 34 35 34 34 34 34 33 33 34 34 33 32 32 32 32 32 33 31 32 32 36 32 32 32 32 32 34 38
35 35 34 35 34 34 34 34 35 34 34 34 34 34 34 34 33 34 34 35 35 33 32 32 32 36 33 33 31 30 32 36 35 32 32 31 31 31
34 34 34 34 34 35 34 34 34 34 34 34 33 34 34 34 34 34 34 33 33 33 32 32 32 32 31 30 28 29 30 32 35 37 37 35 30 28
33 33 33 34 34 34 34 33 33 33 33 33 33 33 33 33 33 33 33 32 32 31 31 30 30 30 30 29 29 28 29 29 31 30 31 38 38 37
MSLP
1021.93 1022.30 1022.55 1022.82 1023.06 1023.28 1023.56 1023.86 1024.68 1026.06 1026.23 1025.94 1026.02 1025.61 1025.69 1025.93 1026.44 1026.85 1027.26 1027.59 1027.80 1027.91 1027.97 1028.03 1028.18 1028.15 1028.27 1028.56 1028.88 1028.99 1029.22 1029.63 1029.73 1029.82 1029.66 1029.89 1029.74 1029.75
1021.43 1021.94 1022.18 1022.28 1022.60 1022.81 1023.04 1023.24 1023.56 1024.46 1025.48 1025.43 1025.58 1025.40 1025.54 1025.68 1025.90 1026.38 1026.78 1027.15 1027.43 1027.64 1027.80 1027.92 1028.02 1028.09 1028.16 1028.23 1028.58 1028.83 1029.05 1029.40 1029.64 1029.82 1029.64 1029.69 1029.88 1030.03
1020.55 1021.04 1021.37 1021.60 1021.96 1022.30 1022.70 1022.93 1023.32 1023.55 1024.35 1025.21 1025.38 1025.56 1025.55 1025.51 1025.67 1026.06 1026.34 1026.67 1027.00 1027.17 1027.52 1027.70 1027.79 1027.94 1027.99 1028.04 1028.26 1028.50 1028.71 1028.96 1029.12 1029.53 1029.65 1029.40 1029.75 1029.93
1019.74 1020.14 1020.52 1021.00 1021.33 1021.66 1021.96 1022.33 1022.72 1022.90 1023.45 1024.40 1024.99 1025.37 1025.48 1025.53 1025.40 1026.02 1026.06 1026.23 1026.61 1026.65 1026.93 1027.45 1027.52 1027.59 1027.77 1027.86 1028.09 1028.28 1028.53 1028.60 1028.83 1029.04 1029.32 1029.38 1029.47 1029.57
1018.92 1019.16 1019.55 1019.95 1020.52 1020.94 1021.20 1021.46 1021.94 1022.30 1022.66 1023.48 1024.45 1024.98 1025.31 1025.46 1025.90 1025.93 1025.87 1026.21 1026.44 1026.22 1026.27 1026.91 1027.18 1027.25 1027.29 1027.38 1027.56 1027.76 1028.09 1028.34 1028.59 1028.88 1029.02 1029.17 1029.39 1029.45
1018.18 1018.31 1018.61 1018.99 1019.30 1020.01 1020.50 1020.94 1021.41 1021.95 1022.44 1023.19 1024.04 1024.25 1024.83 1025.15 1025.64 1026.09 1026.03 1026.14 1025.90 1026.07 1026.04 1026.28 1026.68 1026.84 1026.87 1027.00 1027.17 1027.35 1027.72 1028.10 1028.30 1028.51 1028.80 1029.03 1029.22 1029.33
1017.37 1017.67 1018.01 1018.28 1018.63 1019.06 1019.68 1020.38 1020.85 1021.34 1021.88 1022.68 1023.71 1024.37 1024.42 1024.88 1025.08 1025.28 1025.90 1025.80 1025.75 1026.03 1026.24 1026.10 1026.40 1026.55 1026.64 1026.54 1026.68 1026.98 1027.17 1027.52 1027.81 1028.10 1028.49 1028.81 1029.15 1029.30
1017.00 1017.30 1017.59 1017.90 1018.10 1018.44 1018.98 1019.51 1020.00 1020.70 1021.30 1021.90 1022.53 1023.50 1023.56 1023.84 1024.20 1024.22 1025.07 1025.97 1026.03 1025.14 1025.70 1025.84 1025.81 1026.17 1026.12 1026.14 1026.18 1026.34 1026.56 1026.81 1027.15 1027.59 1027.97 1028.31 1028.63 1028.89
1016.50 1016.86 1017.21 1017.42 1017.88 1018.24 1018.66 1018.94 1019.31 1019.69 1019.99 1020.67 1021.20 1021.93 1022.47 1022.68 1023.00 1023.17 1024.08 1024.75 1025.20 1025.21 1025.42 1025.61 1025.77 1025.77 1025.70 1025.63 1025.74 1025.90 1026.03 1026.22 1026.38 1026.84 1027.27 1027.73 1028.11 1028.30
1016.04 1016.23 1016.49 1016.88 1017.25 1017.83 1018.43 1018.95 1019.19 1019.44 1019.80 1020.16 1020.40 1020.94 1021.17 1021.37 1022.00 1021.72 1022.93 1023.94 1024.72 1025.13 1025.11 1025.49 1025.54 1025.75 1025.47 1025.33 1025.42 1025.44 1025.51 1025.66 1025.92 1026.35 1026.58 1026.96 1027.42 1027.57
1015.45 1015.74 1015.96 1016.32 1016.61 1017.25 1017.92 1018.55 1019.00 1019.03 1019.18 1019.54 1019.93 1020.23 1020.72 1021.13 1021.50 1022.16 1023.13 1023.80 1024.77 1025.03 1024.80 1025.04 1025.63 1025.95 1025.62 1025.58 1025.49 1025.42 1025.36 1025.37 1025.69 1026.00 1026.09 1026.42 1026.80 1027.19
1015.21 1015.20 1015.44 1015.66 1016.02 1016.58 1017.09 1017.80 1018.37 1018.77 1018.94 1019.52 1019.85 1020.06 1020.60 1020.93 1020.91 1021.32 1022.15 1023.15 1023.95 1024.60 1024.24 1025.01 1025.85 1025.81 1025.99 1025.91 1025.82 1025.62 1025.44 1025.48 1025.72 1025.78 1026.02 1026.18 1026.45 1026.93
1014.62 1014.92 1015.11 1015.30 1015.55 1015.94 1016.44 1016.99 1017.38 1017.76 1018.30 1018.90 1019.55 1020.12 1020.66 1021.08 1021.16 1021.33 1021.47 1021.83 1022.85 1023.40 1023.74 1024.50 1025.54 1025.82 1025.96 1025.96 1026.03 1025.88 1025.77 1025.90 1025.97 1025.85 1025.96 1026.15 1026.30 1026.55
1013.92 1014.22 1014.68 1014.88 1015.38 1015.73 1016.14 1016.46 1016.97 1017.45 1017.98 1018.79 1019.53 1020.15 1020.51 1020.87 1021.22 1021.38 1021.76 1021.94 1022.26 1022.69 1023.43 1024.11 1024.95 1025.31 1025.76 1026.28 1026.29 1026.07 1026.03 1025.93 1026.07 1026.25 1026.28 1026.25 1026.22 1026.20
1013.37 1013.58 1014.16 1014.61 1014.99 1015.42 1015.78 1016.10 1016.58 1017.41 1017.83 1018.66 1019.18 1019.72 1020.12 1020.61 1021.35 1021.91 1022.14 1022.54 1023.12 1023.37 1023.65 1024.18 1024.56 1025.14 1025.42 1025.90 1026.15 1026.36 1026.43 1026.55 1026.61 1026.72 1026.51 1026.43 1026.48 1026.50
1013.10 1013.56 1013.99 1014.38 1014.85 1015.24 1015.80 1016.04 1016.35 1016.87 1017.48 1018.02 1019.02 1019.65 1020.33 1020.87 1021.33 1021.51 1022.48 1022.88 1023.55 1024.55 1024.46 1024.51 1024.74 1025.04 1025.51 1025.70 1025.87 1026.36 1026.60 1026.89 1026.90 1026.80 1026.83 1026.77 1026.51 1026.52
1012.60 1013.25 1013.98 1014.47 1014.83 1015.21 1015.68 1015.96 1016.34 1016.74 1017.42 1018.24 1019.00 1019.73 1020.20 1020.69 1021.48 1021.68 1022.08 1022.90 1023.52 1024.35 1024.96 1025.18 1025.21 1025.26 1025.38 1025.71 1026.24 1026.43 1026.73 1026.88 1026.89 1026.92 1026.83 1026.81 1026.68 1026.68
1012.14 1012.82 1013.41 1013.98 1014.55 1015.06 1015.54 1016.02 1016.46 1016.64 1017.13 1017.76 1018.60 1019.55 1020.12 1020.74 1021.27 1021.86 1022.45 1022.87 1023.40 1024.21 1024.73 1025.04 1025.33 1025.59 1025.92 1026.27 1026.21 1026.54 1026.83 1026.81 1026.75 1026.66 1026.86 1026.97 1026.78 1026.65
1011.73 1012.62 1013.25 1013.65 1014.24 1014.71 1015.40 1015.95 1016.49 1017.02 1017.41 1017.90 1018.43 1019.41 1020.07 1020.94 1021.24 1021.95 1022.46 1023.01 1023.78 1024.23 1024.79 1025.14 1025.42 1025.50 1025.88 1026.27 1026.64 1026.48 1026.75 1026.89 1026.92 1026.88 1027.01 1027.18 1027.10 1026.84
1012.05 1012.79 1013.39 1013.78 1014.66 1015.13 1015.75 1016.41 1017.04 1017.51 1017.81 1018.20 1018.83 1019.62 1020.28 1020.88 1021.61 1022.20 1022.65 1023.06 1023.58 1024.28 1024.88 1025.24 1025.42 1025.61 1025.71 1026.12 1026.55 1026.91 1026.68 1026.99 1027.07 1027.10 1027.15 1027.12 1026.95 1026.68
1012.65 1013.07 1013.76 1014.36 1014.90 1015.65 1016.12 1016.76 1017.19 1017.71 1018.10 1018.63 1019.38 1020.01 1020.55 1020.92 1021.77 1022.29 1022.60 1022.93 1023.74 1024.47 1024.95 1025.58 1025.75 1025.67 1026.02 1026.28 1026.75 1027.14 1027.21 1027.04 1027.10 1027.16 1027.16 1027.09 1026.86 1026.61
1013.12 1013.81 1014.42 1014.80 1015.31 1016.03 1016.55 1017.06 1017.68 1018.36 1018.86 1019.13 1019.74 1020.27 1020.84 1021.12 1021.98 1022.56 1022.95 1023.61 1024.26 1024.62 1025.18 1025.89 1026.09 1026.19 1026.43 1026.76 1027.09 1027.27 1027.24 1027.09 1026.87 1026.86 1026.84 1026.98 1027.08 1026.80
1013.45 1014.27 1014.92 1015.37 1015.88 1016.51 1017.24 1017.64 1018.09 1018.83 1019.24 1019.53 1019.93 1020.59 1021.12 1021.81 1022.47 1022.98 1023.41 1023.84 1024.34 1025.04 1025.62 1026.20 1026.50 1026.59 1026.80 1027.08 1027.27 1027.37 1027.33 1027.13 1027.03 1026.94 1026.57 1026.27 1026.29 1026.23
Wind_Speed
9 8 7 5 4 4 4 5 6 4 5 4 3 4 5 6 7 6 6 7 11 11 11 10 5 7 12 10 11 12 11 10 7 5 3 2 4 7
9 10 9 9 8 5 4 5 4 5 4 5 6 4 5 5 7 7 7 8 11 12 13 11 9 7 10 11 11 14 13 12 9 8 7 6 6 7
12 13 13 14 8 8 5 4 4 4 4 2 2 3 3 5 5 5 5 6 5 12 13 13 11 10 11 10 11 14 15 15 13 11 11 10 10 8
14 14 15 9 12 10 8 10 8 5 4 5 3 3 4 4 4 5 4 4 5 8 12 13 13 12 11 11 11 12 14 14 13 12 12 11 11 11
15 15 15 16 11 8 8 9 7 5 3 4 4 2 2 2 1 1 4 3 4 7 11 13 14 13 14 12 13 13 14 13 13 12 11 10 10 11
13 12 14 14 15 14 11 11 10 8 4 3 2 3 2 2 3 2 2 4 3 3 5 7 9 13 14 14 13 13 13 14 14 14 12 11 11 9
10 11 13 14 15 14 10 9 9 7 4 4 3 2 3 3 5 4 4 1 2 4 3 3 3 4 5 10 9 12 13 14 14 14 13 12 11 10
9 9 11 8 13 17 17 17 15 11 9 7 7 5 5 4 5 5 4 2 3 3 5 4 4 5 4 4 9 11 13 14 14 14 14 14 13 12
10 9 9 6 11 11 14 15 16 17 16 13 12 11 7 9 7 5 5 5 4 2 4 2 3 6 4 4 10 12 13 14 15 15 15 14 13 13
10 10 10 9 9 8 8 11 12 11 9 6 8 8 7 8 9 7 8 5 3 0 2 3 1 3 1 3 8 10 11 11 11 13 14 14 14 13
10 9 10 10 12 15 11 10 9 7 6 9 7 6 7 11 8 6 4 4 3 4 3 3 2 2 1 2 2 5 5 8 10 12 12 13 13 13
6 7 13 13 14 15 11 9 10 8 7 5 3 3 5 8 15 7 7 5 3 1 4 4 3 2 2 1 2 3 2 4 5 7 9 10 11 5
7 6 6 11 14 16 14 10 11 9 9 7 5 4 4 4 4 4 6 5 4 2 4 4 2 2 1 1 1 2 2 1 0 1 4 8 11 10
9 6 6 12 12 13 11 9 9 8 5 6 6 6 6 5 4 4 4 5 4 3 7 4 3 3 2 1 1 1 2 3 2 1 1 3 5 12
6 8 11 13 14 12 14 13 13 5 6 6 7 5 3 4 6 4 6 9 7 6 4 3 3 3 2 2 2 1 2 3 1 1 0 0 1 3
8 6 7 7 8 6 5 8 6 7 7 6 3 4 3 3 4 3 3 3 4 2 5 4 4 3 2 1 2 2 1 2 1 0 0 1 1 2
8 5 4 4 5 5 3 5 5 6 5 4 5 4 4 3 3 1 4 2 3 4 2 1 4 4 3 4 1 1 1 1 1 0 2 2 1 2
5 6 6 8 8 7 6 4 2 5 4 6 7 6 6 4 4 3 2 3 5 3 3 2 2 2 2 3 2 2 0 1 1 1 2 2 2 2
4 5 6 6 6 7 6 3 4 3 4 5 8 7 6 6 8 5 5 6 5 4 3 2 1 2 2 2 1 0 2 0 1 2 1 1 2 4
6 6 6 7 5 6 6 6 6 5 6 6 7 6 6 6 6 6 5 7 7 4 3 2 2 1 2 3 3 1 3 2 2 1 1 1 3 11
6 8 6 6 7 7 7 6 7 6 6 7 6 6 6 7 6 5 6 10 9 5 6 4 2 7 3 2 3 2 3 4 1 1 1 2 2 2
7 7 6 7 7 7 7 7 7 7 6 7 6 6 5 6 6 6 6 6 5 5 6 4 4 3 2 2 3 1 1 2 3 3 2 4 1 3
9 7 7 7 7 7 7 7 7 7 6 7 7 6 6 7 6 6 6 6 7 6 5 4 2 1 2 2 3 1 1 1 1 1 2 5 6 9
Wind_Direction
206 205 209 207 198 194 174 165 149 178 228 235 209 214 188 177 195 189 197 212 220 225 229 241 229 213 180 191 180 168 178 184 179 181 148 36 189 157
209 206 214 218 215 208 189 190 172 149 196 193 223 205 191 185 188 184 195 192 216 225 228 231 222 226 204 193 191 177 181 186 198 207 194 176 172 163
203 206 213 219 213 212 193 190 187 164 140 213 192 238 196 177 179 187 186 193 215 223 229 230 225 223 215 208 202 191 189 190 195 205 211 197 203 192
210 206 211 207 214 211 203 204 208 188 141 159 168 174 207 223 171 178 196 204 203 220 224 231 229 221 222 215 210 205 200 196 199 200 210 212 215 208
215 211 209 210 202 199 200 200 205 193 161 145 144 153 177 145 123 205 180 225 235 215 216 228 233 228 222 217 212 209 208 203 201 205 206 209 220 218
215 214 211 210 205 196 193 197 196 188 162 143 140 139 155 130 113 162 241 217 232 219 223 215 223 230 226 225 221 213 209 211 210 209 209 212 215 220
220 213 216 215 207 198 194 189 187 183 149 140 142 228 164 162 189 172 216 176 268 205 226 230 222 224 234 232 232 221 213 213 213 213 211 213 218 220
203 214 213 190 193 182 189 193 189 191 193 181 185 196 200 202 159 170 146 146 264 202 188 246 174 229 222 214 218 216 215 213 211 212 209 211 211 213
205 207 210 201 194 206 206 196 194 195 188 188 190 203 199 194 164 147 163 166 202 217 142 262 185 236 218 228 223 224 218 215 210 209 208 210 210 211
207 205 202 197 190 183 189 205 207 204 207 186 199 204 207 184 193 173 180 166 79 193 155 198 172 246 296 243 242 232 225 219 217 214 209 211 210 205
210 208 198 204 188 182 185 198 204 203 192 196 201 189 181 175 164 119 152 123 195 227 204 143 204 248 297 295 334 326 279 246 229 224 218 212 207 205
197 207 208 202 178 180 188 186 200 200 168 169 168 162 188 193 169 183 158 156 137 45 213 160 174 169 321 356 333 329 323 280 274 241 226 214 203 198
201 202 209 196 184 182 189 188 205 182 184 172 165 166 172 187 188 184 173 142 146 169 165 122 154 144 119 294 321 18 25 346 280 323 267 232 209 195
202 196 209 201 199 195 193 191 165 144 149 175 179 196 197 183 180 149 133 95 73 120 155 133 139 148 129 360 242 356 44 37 33 23 11 333 283 221
202 186 186 193 202 200 196 181 160 170 164 181 198 191 165 143 116 84 77 86 65 46 89 91 122 135 130 156 148 60 33 14 356 248 328 215 2 2
172 175 183 179 183 181 166 171 177 176 182 183 147 107 104 111 126 125 95 115 88 34 35 66 119 131 123 102 105 121 155 182 273 71 233 309 273 239
150 140 147 147 147 138 134 174 163 152 142 134 126 131 102 133 106 19 112 112 121 140 133 60 49 59 61 119 115 124 154 223 247 223 62 355 359 341
140 166 172 163 161 153 148 134 94 126 135 141 131 146 142 141 128 108 97 122 120 117 126 117 122 91 58 33 82 121 98 84 354 63 67 33 316 2
142 151 150 145 146 139 139 130 132 108 109 129 131 133 127 135 136 129 122 123 118 114 87 96 115 124 116 109 273 139 127 70 33 32 52 205 283 304
119 120 126 118 116 117 118 118 111 109 110 113 110 118 124 128 125 128 131 131 122 109 109 83 101 93 109 146 125 8 10 70 18 332 322 264 251 273
118 119 111 113 115 116 112 109 109 108 113 112 108 120 121 126 121 123 123 122 126 131 118 96 34 99 83 71 79 35 359 47 21 330 359 307 298 288
111 108 117 120 113 111 111 113 107 108 114 113 110 108 108 107 110 115 108 116 109 102 99 100 77 81 72 98 106 128 6 347 347 346 240 198 277 312
118 113 106 101 105 108 110 109 107 105 100 102 105 104 109 110 108 105 108 107 109 106 111 122 123 89 115 138 133 146 267 315 346 280 278 236 252 247